[[{"header":{"parameterUnit":"m.s-1","parameterCategory":1,"la1":30.2991,"la2":30.254,"lo1":-89.0895,"lo2":-89.0444,"dy":0.0017,"dx":0.0017,"nx":28,"ny":28,"refTime":"2024-10-05T21:00:00:Z","depth":0,"parameterNumber":2,"parameterNumberName":"U-component_of_WINDS"},"data":[0,0,0,0,0,0,0,0,0,0,0,0,0,0,0,0,0,0,0,0,0,0,0,0,0,0,0,0,0,0,0,0,0,0,0,0,0,0,0,0,0,0,0,0,0,0,0,0,0,0,0,0,0,0,0,0,0,0,-3.779,-3.7791,0,-3.7882,-3.7883,-3.7884,-3.7843,-3.784,-3.7838,-3.7836,-3.7928,-3.7933,-3.7937,0,0,0,0,0,0,0,0,0,0,0,0,0,-3.758,-3.7584,-3.779,-3.7791,-3.7792,-3.7882,-3.7883,-3.7884,-3.7843,-3.784,-3.7837,-3.7835,-3.7927,-3.7932,-3.7938,0,0,0,0,0,0,0,0,0,0,0,0,0,-3.7671,-3.7585,-3.779,-3.7782,-3.7783,-3.7881,-3.7883,-3.7885,-3.7844,-3.784,-3.7837,-3.7834,-3.7925,-3.7932,-3.7939,-3.8049,0,0,-3.796,-3.7963,0,0,0,0,0,0,0,0,-3.7666,-3.7679,-3.7782,-3.7783,-3.7784,-3.7847,-3.7843,-3.794,-3.7844,-3.782,-3.7836,-3.7832,-3.7904,-3.7913,-3.7937,-3.8054,-3.8058,-3.796,-3.7964,-3.7967,-3.7969,0,0,0,0,0,0,0,-3.766,-3.7675,-3.7826,-3.7784,-3.7785,-3.7775,-3.7784,-3.7861,-3.788,-3.7822,-3.7819,-3.7831,-3.7904,-3.7931,-3.7939,-3.8059,-3.796,-3.7966,-3.797,-3.7973,-3.8276,-3.828,0,0,0,0,0,0,-3.7654,-3.767,-3.7823,-3.7829,-3.7715,-3.7782,-3.7792,-3.783,-3.7879,-3.7883,-3.7834,-3.7829,-3.7921,-3.7931,-3.7942,-3.8078,-3.7967,-3.7974,-3.7978,-3.8272,-3.8277,-3.8281,0,0,0,0,0,0,-3.7649,-3.7668,-3.7819,-3.7749,-3.7767,-3.7789,-3.7832,-3.7834,-3.7861,-3.7888,-3.7891,-3.7858,-3.7918,-3.7932,-3.8024,-3.8081,-3.7977,-3.7983,-3.8267,-3.8274,-3.8279,-3.8349,0,0,0,0,0,0,-3.7643,-3.7666,-3.7708,-3.775,-3.7771,-3.79,-3.7836,-3.7838,-3.7873,-3.7867,-3.7911,-3.7915,-3.7917,-3.8014,-3.8031,-3.8088,-3.7989,-3.8263,-3.827,-3.8277,-3.8342,-3.8357,-3.837,0,0,0,0,0,-3.7636,-3.7723,-3.771,-3.7729,-3.7824,-3.7903,-3.7915,-3.7915,-3.7877,-3.792,-3.7939,-3.7914,-3.8072,-3.8024,-3.8043,-3.8103,-3.8259,-3.8268,-3.8277,-3.8336,-3.8354,-3.8369,0,0,0,0,0,0,-3.7685,-3.7728,-3.7714,-3.7817,-3.7857,-3.7896,-3.7949,-3.7934,-3.7984,-3.7977,-3.7975,-3.7985,-3.8081,-3.8101,-3.8047,-3.8215,-3.816,-3.8173,-3.8199,-3.8216,-3.8229,-3.8223,-3.7994,0,0,0,0,0,-3.7708,-3.7769,-3.7803,-3.789,-3.7911,-3.7927,-3.7962,-3.7959,-3.8,-3.8016,-3.8041,-3.8081,-3.814,-3.8179,-3.8234,-3.8345,-3.8356,-3.8396,-3.841,-3.8421,-3.8432,-3.8496,-3.8516,-3.831,-3.831,-3.831,0,0,-3.7755,-3.7787,-3.7825,-3.7901,-3.7932,-3.7996,-3.7941,-3.801,-3.8058,-3.8026,-3.8115,-3.8135,-3.818,-3.8283,-3.833,-3.8303,-3.8492,-3.8432,-3.8441,-3.8446,-3.8507,-3.8527,-3.8544,-3.8316,-3.8315,-3.8314,0,0,-3.7876,-3.7904,-3.7982,-3.8015,-3.8063,-3.8073,-3.8092,-3.8135,-3.8147,-3.8237,-3.8216,-3.8273,-3.8373,-3.8408,-3.8439,-3.8577,-3.8558,-3.8595,-3.8667,-3.873,-3.8746,-3.876,-3.8813,-3.8831,-3.8606,-3.8607,-3.8607,0,-3.7929,-3.8024,-3.8024,-3.8097,-3.8132,-3.8108,-3.8188,-3.822,-3.8283,-3.8308,-3.8277,-3.8407,-3.8435,-3.8548,-3.8582,-3.8606,-3.863,-3.859,-3.8744,-3.8758,-3.8771,-3.8821,-3.8841,-3.8611,-3.861,-3.861,-3.861,0,-3.8089,-3.8156,-3.8213,-3.8277,-3.8319,-3.8395,-3.8407,-3.845,-3.8445,-3.8459,-3.8553,-3.8587,-3.8651,-3.8677,-3.8671,-3.8791,-3.8773,-3.8743,-3.8688,-3.8796,-3.8843,-3.8861,-3.8617,-3.8616,-3.8614,-3.8613,0,0,-3.824,-3.8306,-3.8328,-3.8358,-3.8411,-3.8463,-3.8539,-3.8603,-3.8641,-3.8686,-3.8752,-3.884,-3.8814,-3.8849,-3.8847,-3.8902,-3.9014,-3.8866,-3.8867,-3.8894,-3.9151,-3.9175,-3.9197,-3.9001,-3.9005,-3.9008,-3.9148,0,-3.8366,-3.85,-3.8504,-3.8627,-3.8691,-3.8671,-3.8738,-3.8778,-3.8795,-3.8852,-3.887,-3.8934,-3.8893,-3.8915,-3.8968,-3.8989,-3.9066,-3.8979,-3.9064,-3.9067,-3.9055,-3.9221,-3.9245,-3.9376,-3.9166,-3.9169,-3.9172,0,-3.853,-3.8584,-3.8714,-3.8762,-3.8788,-3.8848,-3.891,-3.8964,-3.901,-3.9019,-3.9061,-3.9052,-3.9132,-3.9074,-3.9185,-3.9126,-3.9161,-3.9178,-3.9183,-3.9192,-3.9126,-3.9236,-3.9417,-3.9438,-3.92,-3.9198,-3.9196,0,-3.8631,-3.8735,-3.8828,-3.8854,-3.8911,-3.8955,-3.898,-3.9024,-3.9063,-3.9117,-3.9143,-3.9205,-3.9239,-3.9288,-3.9298,-3.9254,-3.9411,-3.9352,-3.9421,-3.9422,-3.9456,-3.9454,-3.9647,-3.9476,-3.9475,-3.9475,-3.9474,0,-3.8772,-3.8853,-3.8874,-3.8931,-3.9023,-3.9027,-3.9118,-3.914,-3.918,-3.9242,-3.9228,-3.9286,-3.9294,-3.9356,-3.9363,-3.9457,-3.9471,-3.9482,-3.9483,-3.9484,-3.9483,-3.9508,-3.95,-3.948,-3.9479,-3.9478,-3.9477,0,-3.89,-3.8917,-3.9018,-3.9065,-3.9079,-3.9144,-3.9185,-3.9241,-3.9257,-3.9336,-3.9355,-3.9381,-3.9453,-3.9467,-3.9551,-3.9557,-3.9669,-3.966,-3.9653,-3.9653,-3.9723,-3.9717,-3.994,-3.9971,-3.9777,-3.9779,-3.978,0,-3.899,-3.9053,-3.9108,-3.9149,-3.9178,-3.9244,-3.9286,-3.9294,-3.9338,-3.9398,-3.9447,-3.9518,-3.9575,-3.9691,-3.9718,-3.9783,-3.9777,-3.9851,-3.9787,-3.9787,-3.9782,-3.9779,-3.9787,-3.9864,-3.9866,-3.9867,-3.9869,0,-3.9149,-3.9155,-3.9216,-3.9281,-3.9332,-3.9383,-3.9431,-3.9466,-3.9481,-3.9532,-3.9606,-3.9651,-3.9739,-3.981,-3.9877,-3.9904,-3.9891,-3.9889,-3.9909,-3.9911,-3.9906,-3.9913,-3.9689,-3.9884,-3.9882,-3.9881,-3.988,-3.988,-3.9262,-3.9318,-3.9367,-3.9437,-3.9475,-3.9522,-3.9578,-3.9603,-3.9665,-3.9738,-3.9739,-3.9821,-3.987,-3.9958,-3.999,-4.0055,-4.0032,-4.006,-4.0068,-4.0075,-4.0083,-3.9895,-4.0067,-4.0067,-4.0066,-4.0066,-4.0066,0,-3.9422,-3.9454,-3.9518,-3.9588,-3.9643,-3.9626,-3.9681,-3.9728,-3.9801,-3.9848,-3.9906,-3.9993,-4.0064,-4.0097,-4.0167,-4.0214,-4.0209,-4.0232,-4.0229,-4.0237,-4.0098,-4.0075,-4.0234,-4.0234,-4.0234,-4.0234,-4.0234,-4.0234,-3.9512,-3.9608,-3.9621,-3.9736,-3.9767,-3.9848,-3.9881,-3.9926,-3.9964,-4.0063,-4.0122,-4.0144,-4.0186,-4.026,-4.0325,-4.0333,-4.0361,-4.0387,-4.0393,-4.0263,-4.0246,-4.023,-4.0208,-4.0392,-4.0393,-4.0526,-4.0527,-4.0528]},{"header":{"parameterUnit":"m.s-1","parameterCategory":1,"la1":30.2991,"la2":30.254,"lo1":-89.0895,"lo2":-89.0444,"dy":0.0017,"dx":0.0017,"nx":28,"ny":28,"refTime":"2024-10-05T21:00:00:Z","depth":0,"parameterNumber":3,"parameterNumberName":"V-component_of_WINDS"},"data":[0,0,0,0,0,0,0,0,0,0,0,0,0,0,0,0,0,0,0,0,0,0,0,0,0,0,0,0,0,0,0,0,0,0,0,0,0,0,0,0,0,0,0,0,0,0,0,0,0,0,0,0,0,0,0,0,0,0,-2.2109,-2.2111,0,-2.23,-2.2302,-2.2304,-2.2379,-2.2378,-2.2378,-2.2377,-2.257,-2.2575,-2.2581,0,0,0,0,0,0,0,0,0,0,0,0,0,-2.1806,-2.1811,-2.2109,-2.2111,-2.2114,-2.23,-2.2302,-2.2305,-2.2379,-2.2378,-2.2377,-2.2377,-2.2568,-2.2575,-2.2581,0,0,0,0,0,0,0,0,0,0,0,0,0,-2.1961,-2.1813,-2.2108,-2.2173,-2.2181,-2.2299,-2.2302,-2.2306,-2.2379,-2.2378,-2.2377,-2.2377,-2.2566,-2.2574,-2.2582,-2.265,0,0,-2.2608,-2.2612,0,0,0,0,0,0,0,0,-2.1952,-2.1972,-2.2161,-2.2169,-2.2178,-2.2315,-2.2267,-2.2421,-2.2379,-2.2303,-2.2377,-2.2376,-2.2486,-2.25,-2.2538,-2.2659,-2.2667,-2.2609,-2.2614,-2.2618,-2.262,0,0,0,0,0,0,0,-2.1942,-2.1965,-2.2184,-2.2164,-2.2174,-2.2192,-2.2213,-2.2296,-2.2396,-2.231,-2.2316,-2.2338,-2.249,-2.253,-2.2543,-2.267,-2.2609,-2.2616,-2.2621,-2.2625,-2.2859,-2.2861,0,0,0,0,0,0,-2.1921,-2.1955,-2.2178,-2.219,-2.2061,-2.2198,-2.2222,-2.2271,-2.2396,-2.2414,-2.2338,-2.234,-2.2516,-2.2533,-2.255,-2.264,-2.2618,-2.2625,-2.263,-2.2858,-2.286,-2.2861,0,0,0,0,0,0,-2.1914,-2.194,-2.2171,-2.2074,-2.2105,-2.2204,-2.2259,-2.2276,-2.2316,-2.2417,-2.2435,-2.2361,-2.2516,-2.2538,-2.2626,-2.2647,-2.2629,-2.2637,-2.2857,-2.2859,-2.286,-2.2817,0,0,0,0,0,0,-2.1905,-2.1937,-2.1964,-2.2075,-2.211,-2.2243,-2.2261,-2.228,-2.233,-2.2335,-2.2443,-2.246,-2.2517,-2.2613,-2.2634,-2.2658,-2.2644,-2.2855,-2.2858,-2.286,-2.2817,-2.2817,-2.2817,0,0,0,0,0,-2.1894,-2.1942,-2.1965,-2.1991,-2.2146,-2.2244,-2.2264,-2.233,-2.2332,-2.236,-2.2425,-2.2456,-2.2641,-2.2621,-2.2645,-2.2673,-2.2854,-2.2857,-2.286,-2.2817,-2.2817,-2.2817,0,0,0,0,0,0,-2.183,-2.1958,-2.1984,-2.207,-2.2146,-2.2256,-2.2293,-2.2327,-2.2403,-2.2404,-2.2481,-2.2505,-2.2586,-2.2638,-2.2613,-2.2746,-2.275,-2.2758,-2.2709,-2.271,-2.271,-2.2696,-2.2651,0,0,0,0,0,-2.1826,-2.1896,-2.2004,-2.2069,-2.2106,-2.2193,-2.2238,-2.2283,-2.2363,-2.2395,-2.2467,-2.2544,-2.262,-2.2668,-2.2743,-2.2825,-2.2851,-2.2856,-2.2856,-2.2856,-2.2862,-2.2911,-2.2916,-2.287,-2.287,-2.287,0,0,-2.1818,-2.1897,-2.1936,-2.2059,-2.2123,-2.2193,-2.2219,-2.2292,-2.2345,-2.2406,-2.2494,-2.2549,-2.264,-2.2726,-2.2767,-2.2772,-2.288,-2.2859,-2.2858,-2.2865,-2.2915,-2.2919,-2.2923,-2.2871,-2.2871,-2.2871,0,0,-2.184,-2.1907,-2.197,-2.2034,-2.2131,-2.2189,-2.2204,-2.231,-2.235,-2.244,-2.2488,-2.2552,-2.268,-2.2744,-2.2792,-2.2842,-2.2874,-2.2864,-2.2865,-2.2912,-2.2916,-2.292,-2.2939,-2.2944,-2.287,-2.2869,-2.2869,0,-2.1818,-2.1927,-2.1997,-2.2069,-2.2122,-2.2183,-2.2248,-2.2306,-2.2422,-2.2457,-2.2461,-2.2625,-2.269,-2.2793,-2.2805,-2.2842,-2.2863,-2.2852,-2.291,-2.2914,-2.2919,-2.2938,-2.2945,-2.2868,-2.2868,-2.2868,-2.2868,0,-2.1896,-2.1971,-2.201,-2.2123,-2.2181,-2.2248,-2.2329,-2.2379,-2.2418,-2.2476,-2.2567,-2.2648,-2.2742,-2.2769,-2.2808,-2.2878,-2.2878,-2.2895,-2.29,-2.292,-2.294,-2.2947,-2.2865,-2.2866,-2.2866,-2.2867,0,0,-2.1881,-2.2035,-2.2048,-2.2101,-2.2214,-2.2273,-2.2344,-2.2437,-2.2479,-2.2557,-2.2619,-2.2728,-2.2745,-2.2801,-2.2847,-2.2889,-2.2925,-2.2901,-2.2904,-2.2904,-2.301,-2.2997,-2.3004,-2.2947,-2.2949,-2.295,-2.3003,0,-2.192,-2.205,-2.2117,-2.2219,-2.229,-2.235,-2.2412,-2.2488,-2.2544,-2.2612,-2.2674,-2.275,-2.2766,-2.2801,-2.2844,-2.2911,-2.2948,-2.2908,-2.3006,-2.3009,-2.2982,-2.3014,-2.3001,-2.3046,-2.301,-2.3012,-2.3013,0,-2.1981,-2.2061,-2.2171,-2.2278,-2.231,-2.2365,-2.2457,-2.2522,-2.2609,-2.2648,-2.2711,-2.2757,-2.2835,-2.2835,-2.2944,-2.2916,-2.296,-2.2999,-2.3002,-2.3014,-2.3012,-2.3028,-2.3062,-2.3069,-2.3025,-2.3024,-2.3023,0,-2.1961,-2.2097,-2.2181,-2.2224,-2.235,-2.2388,-2.2442,-2.2529,-2.2582,-2.2662,-2.2698,-2.2785,-2.2833,-2.29,-2.2969,-2.2963,-2.3072,-2.3077,-2.3106,-2.3105,-2.3127,-2.3124,-2.3169,-2.3153,-2.3153,-2.3153,-2.3153,0,-2.1997,-2.2062,-2.2174,-2.2225,-2.23,-2.2377,-2.2449,-2.2508,-2.2585,-2.265,-2.2706,-2.2765,-2.2852,-2.2922,-2.2977,-2.306,-2.308,-2.3114,-2.3128,-2.3109,-2.3105,-2.3139,-2.3138,-2.3155,-2.3155,-2.3154,-2.3154,0,-2.1988,-2.2065,-2.2161,-2.2274,-2.2304,-2.2354,-2.2451,-2.2504,-2.2563,-2.2644,-2.2667,-2.2761,-2.2847,-2.2923,-2.3036,-2.3073,-2.3158,-2.3174,-2.3128,-2.3136,-2.3162,-2.3159,-2.323,-2.3244,-2.3218,-2.3218,-2.3218,0,-2.2006,-2.2058,-2.2177,-2.2225,-2.2279,-2.2355,-2.241,-2.2488,-2.2542,-2.2648,-2.2688,-2.2778,-2.2855,-2.2989,-2.3067,-2.3154,-2.3174,-2.3193,-2.3187,-2.3168,-2.3176,-2.3172,-2.3179,-2.3193,-2.3193,-2.3193,-2.3193,0,-2.203,-2.2067,-2.2144,-2.2236,-2.23,-2.2376,-2.2452,-2.2488,-2.2581,-2.2639,-2.2729,-2.2788,-2.2905,-2.2994,-2.3091,-2.3147,-2.3186,-2.3194,-2.3206,-2.3188,-2.316,-2.3177,-2.3129,-2.3192,-2.3192,-2.3192,-2.3192,-2.3192,-2.2036,-2.2086,-2.2179,-2.2264,-2.2331,-2.2402,-2.2458,-2.2526,-2.2602,-2.2704,-2.2745,-2.2837,-2.2926,-2.306,-2.3116,-2.3189,-2.3195,-2.3212,-2.3216,-2.3219,-2.3217,-2.3148,-2.3206,-2.3206,-2.3206,-2.3207,-2.3207,0,-2.2064,-2.2128,-2.2206,-2.2313,-2.238,-2.2412,-2.25,-2.2554,-2.2634,-2.2714,-2.2789,-2.2893,-2.2981,-2.3067,-2.3159,-2.3201,-2.3221,-2.3223,-2.3221,-2.3233,-2.3205,-2.3186,-2.3205,-2.3205,-2.3205,-2.3205,-2.3205,-2.3205,-2.2087,-2.2174,-2.2222,-2.2343,-2.2406,-2.2497,-2.2545,-2.2611,-2.2676,-2.279,-2.2864,-2.292,-2.3003,-2.3102,-2.3185,-2.3208,-2.324,-2.3236,-2.3264,-2.3236,-2.3235,-2.3234,-2.3217,-2.3242,-2.3242,-2.3287,-2.3288,-2.3288]}]]